CZ-6A DEB, 54512

Orbit data source: Space-Track

CZ-6A DEB, 54512 is space debris in SSO originally from a launch on Fri, 11 Nov 2022 UTC launched from the Taiyaun Space Center, China (TSC). Debris objects in space refer to the collection of defunct objects orbiting the Earth. Examples of debris include non-operational satellites, rocket bodies, and fragments generated from explosions, collisions, or faulty payload assembly.

Loading next visibility...
Identifier
54512, 2022-151JQ
Orbit
SSO
Country
Flag of CNCN / PRC
Related business
Manufacturer
SAST
Mission
Spacecraft
Bus & Motor
Unknown
Mass
Unknown
Launch date (UTC)
2022-11-11 (4 years ago)
Launch vehicle
Unknown
Launch site
Taiyaun Space Center, China (TSC)
Object type
Payload
Rocket body
Debris
Shape & HBR
Unknown shape, 0.1 m
Radar Cross Section
Medium (>0.1 m² and <1 m²)

Expand to show TLE details & history
Last TLE update: 17 hours ago

TLE from 17 hours ago
0 CZ-6A DEB
1 54512U 22151JQ  26264.12294813  .00003680  00000-0  61273-3 0  9997
2 54512  98.5865 328.3085 0086739 350.2918   9.6606 14.68250661202291
Epoch: 2026-09-21T02:57Z
TLE epoch observation values (Epoch: 2026-09-21T02:57:02.718Z)
Latitude
0.00002°
Longitude
-75.96013°
Altitude
609.406 km
Speed
7.587 km/s
True Right ascension
21h 53m 14s
True Declination
0° 00' 00"
Sunlit
Object was in full shadow at epoch
Visualization orbit readout
Latitude
Unknown
Longitude
Unknown
Altitude
Unknown
Speed
Unknown
Apparent Right ascension
Unknown
Apparent Declination
Unknown
Sunlit
N/A
Visualization observer readout
Local Sidereal Time
12:52:26
Azimuth
Unknown
Elevation
Unknown
Doppler factor
Unknown
Orbital elements
Apogee altitude
724.827 km
Perigee altitude
602.666 km
Semi-major axis
7,041.883 km
Eccentricity
0.00867
Inclination
98.5865°
RAAN
328.3085°
Arg. of periapsis
350.2918°
True anomaly
9.8292°
Mean anomaly
9.6606°
Eccentric anomaly
9.74472°
Mean motion
3.67291 °/min
Orbital period
98.02 mins
BSTAR
0.00061273
Loading maneuver chart data...
Computing Atmospheric mass density...
Loading historical data...
Loading historical data...
Loading historical data...
Loading historical data...
Loading historical data...
Loading historical data...
Loading historical data...

Documentation

Showing up to 5 results
|